Time,TemperatureF,DewpointF,PressureIn,WindDirection,WindDirectionDegrees,WindSpeedMPH,WindSpeedGustMPH,Humidity,HourlyPrecipIn,Conditions,Clouds,dailyrainin,SoftwareType,DateUTC
2013-05-27 00:00:00,64.8,59.1,30.09,WSW,248,0.0,0.0,82,0.00,CLR,OVC,0.00,WeatherDisplay:10.37,2013-05-27 04:00:00,
2013-05-27 00:10:00,64.8,59.1,30.09,WSW,248,0.0,0.0,82,0.00,CLR,OVC,0.00,WeatherDisplay:10.37,2013-05-27 04:10:00,
2013-05-27 00:20:00,64.8,59.1,30.09,WSW,248,0.0,0.0,82,0.00,CLR,OVC,0.00,WeatherDisplay:10.37,2013-05-27 04:20:00,
2013-05-27 00:30:00,64.8,59.1,30.09,WSW,248,0.0,0.0,82,0.00,CLR,OVC,0.00,WeatherDisplay:10.37,2013-05-27 04:30:00,
2013-05-27 00:40:00,64.8,59.1,30.09,WSW,248,0.0,0.0,82,0.00,CLR,OVC,0.00,WeatherDisplay:10.37,2013-05-27 04:40:00,
2013-05-27 00:50:00,71.2,61.0,30.07,WSW,248,0.0,0.0,70,0.00,CLR,OVC,0.00,WeatherDisplay:10.37,2013-05-27 04:50:00,
2013-05-27 01:00:00,71.2,61.0,30.07,WSW,248,0.0,0.0,70,0.00,CLR,OVC,0.00,WeatherDisplay:10.37,2013-05-27 05:00:00,
2013-05-27 01:10:00,71.2,61.0,30.07,WSW,248,0.0,0.0,70,0.00,CLR,OVC,0.00,WeatherDisplay:10.37,2013-05-27 05:10:00,
2013-05-27 01:20:00,71.2,61.0,30.07,WSW,248,0.0,0.0,70,0.00,CLR,OVC,0.00,WeatherDisplay:10.37,2013-05-27 05:20:00,
2013-05-27 01:30:00,71.2,61.0,30.07,WSW,248,0.0,0.0,70,0.00,CLR,OVC,0.00,WeatherDisplay:10.37,2013-05-27 05:30:00,
2013-05-27 01:40:00,71.2,61.0,30.07,WSW,248,0.0,0.0,70,0.00,CLR,OVC,0.00,WeatherDisplay:10.37,2013-05-27 05:40:00,
2013-05-27 01:50:00,75.4,61.0,30.06,WSW,248,0.0,0.0,61,0.00,CLR,OVC,0.00,WeatherDisplay:10.37,2013-05-27 05:50:00,
2013-05-27 02:00:00,75.4,61.0,30.06,WSW,248,0.0,0.0,61,0.00,CLR,OVC,0.00,WeatherDisplay:10.37,2013-05-27 06:00:00,
2013-05-27 02:10:00,75.4,61.0,30.06,WSW,248,0.0,0.0,61,0.00,CLR,OVC,0.00,WeatherDisplay:10.37,2013-05-27 06:10:00,
2013-05-27 02:20:00,75.4,61.0,30.06,WSW,248,0.0,0.0,61,0.00,CLR,OVC,0.00,WeatherDisplay:10.37,2013-05-27 06:20:00,
2013-05-27 02:30:00,75.4,61.0,30.06,WSW,248,0.0,0.0,61,0.00,CLR,OVC,0.00,WeatherDisplay:10.37,2013-05-27 06:30:00,
2013-05-27 02:40:00,75.4,61.0,30.06,WSW,248,0.0,0.0,61,0.00,CLR,OVC,0.00,WeatherDisplay:10.37,2013-05-27 06:40:00,
2013-05-27 02:50:00,79.9,62.3,30.05,WSW,248,0.0,0.0,55,0.00,CLR,OVC,0.00,WeatherDisplay:10.37,2013-05-27 06:50:00,
2013-05-27 03:00:00,79.9,62.3,30.05,WSW,248,0.0,0.0,55,0.00,CLR,OVC,0.00,WeatherDisplay:10.37,2013-05-27 07:00:00,
2013-05-27 03:10:00,79.9,62.3,30.05,WSW,248,0.0,0.0,55,0.00,CLR,OVC,0.00,WeatherDisplay:10.37,2013-05-27 07:10:00,
2013-05-27 03:20:00,79.9,62.3,30.05,WSW,248,0.0,0.0,55,0.00,CLR,OVC,0.00,WeatherDisplay:10.37,2013-05-27 07:20:00,
2013-05-27 03:30:00,79.9,62.3,30.05,WSW,248,0.0,0.0,55,0.00,CLR,OVC,0.00,WeatherDisplay:10.37,2013-05-27 07:30:00,
2013-05-27 03:40:00,79.9,62.3,30.05,WSW,248,0.0,0.0,55,0.00,CLR,OVC,0.00,WeatherDisplay:10.37,2013-05-27 07:40:00,
2013-05-27 03:50:00,83.3,62.7,30.03,WSW,248,0.0,0.0,50,0.00,CLR,OVC,0.00,WeatherDisplay:10.37,2013-05-27 07:50:00,
2013-05-27 04:00:00,83.3,62.7,30.03,WSW,248,0.0,0.0,50,0.00,CLR,OVC,0.00,WeatherDisplay:10.37,2013-05-27 08:00:00,
2013-05-27 04:10:00,83.3,62.7,30.03,WSW,248,0.0,0.0,50,0.00,CLR,OVC,0.00,WeatherDisplay:10.37,2013-05-27 08:10:00,
2013-05-27 04:20:00,83.3,62.7,30.03,WSW,248,0.0,0.0,50,0.00,CLR,OVC,0.00,WeatherDisplay:10.37,2013-05-27 08:20:00,
2013-05-27 04:30:00,83.3,62.7,30.03,WSW,248,0.0,0.0,50,0.00,CLR,OVC,0.00,WeatherDisplay:10.37,2013-05-27 08:30:00,
2013-05-27 04:40:00,83.3,62.7,30.03,WSW,248,0.0,0.0,50,0.00,CLR,OVC,0.00,WeatherDisplay:10.37,2013-05-27 08:40:00,
2013-05-27 04:50:00,85.3,62.2,30.02,WSW,248,0.0,0.0,46,0.00,CLR,OVC,0.00,WeatherDisplay:10.37,2013-05-27 08:50:00,
2013-05-27 05:00:00,85.3,62.2,30.02,WSW,248,0.0,0.0,46,0.00,CLR,OVC,0.00,WeatherDisplay:10.37,2013-05-27 09:00:00,
2013-05-27 05:10:00,85.3,62.2,30.02,WSW,248,0.0,0.0,46,0.00,CLR,OVC,0.00,WeatherDisplay:10.37,2013-05-27 09:10:00,
2013-05-27 05:20:00,85.3,62.2,30.02,WSW,248,0.0,0.0,46,0.00,CLR,OVC,0.00,WeatherDisplay:10.37,2013-05-27 09:20:00,
2013-05-27 05:30:00,85.3,62.2,30.02,WSW,248,0.0,0.0,46,0.00,CLR,OVC,0.00,WeatherDisplay:10.37,2013-05-27 09:30:00,
2013-05-27 05:40:00,85.3,62.2,30.02,WSW,248,0.0,0.0,46,0.00,CLR,OVC,0.00,WeatherDisplay:10.37,2013-05-27 09:40:00,
2013-05-27 05:50:00,84.4,61.9,30.00,WSW,248,0.0,0.0,47,0.00,CLR,OVC,0.00,WeatherDisplay:10.37,2013-05-27 09:50:00,
2013-05-27 06:00:00,84.4,61.9,30.00,WSW,248,0.0,0.0,47,0.00,CLR,OVC,0.00,WeatherDisplay:10.37,2013-05-27 10:00:00,
2013-05-27 06:10:00,84.4,61.9,30.00,WSW,248,0.0,0.0,47,0.00,CLR,OVC,0.00,WeatherDisplay:10.37,2013-05-27 10:10:00,
2013-05-27 06:20:00,84.4,61.9,30.00,WSW,248,0.0,0.0,47,0.00,CLR,OVC,0.00,WeatherDisplay:10.37,2013-05-27 10:20:00,
2013-05-27 06:30:00,84.4,61.9,30.00,WSW,248,0.0,0.0,47,0.00,CLR,OVC,0.00,WeatherDisplay:10.37,2013-05-27 10:30:00,
2013-05-27 06:40:00,84.4,61.9,30.00,WSW,248,0.0,0.0,47,0.00,CLR,OVC,0.00,WeatherDisplay:10.37,2013-05-27 10:40:00,
2013-05-27 06:50:00,84.4,61.9,29.98,WSW,248,0.0,0.0,47,0.00,CLR,OVC,0.00,WeatherDisplay:10.37,2013-05-27 10:50:00,
2013-05-27 07:00:00,84.4,61.9,29.98,WSW,248,0.0,0.0,47,0.00,CLR,OVC,0.00,WeatherDisplay:10.37,2013-05-27 11:00:00,
2013-05-27 07:10:00,84.4,61.9,29.98,WSW,248,0.0,0.0,47,0.00,CLR,OVC,0.00,WeatherDisplay:10.37,2013-05-27 11:10:00,
2013-05-27 07:20:00,84.4,61.9,29.98,WSW,248,0.0,0.0,47,0.00,CLR,OVC,0.00,WeatherDisplay:10.37,2013-05-27 11:20:00,
2013-05-27 07:30:00,84.4,61.9,29.98,WSW,248,0.0,0.0,47,0.00,CLR,OVC,0.00,WeatherDisplay:10.37,2013-05-27 11:30:00,
2013-05-27 07:40:00,84.4,61.9,29.98,WSW,248,0.0,0.0,47,0.00,CLR,OVC,0.00,WeatherDisplay:10.37,2013-05-27 11:40:00,
2013-05-27 07:50:00,81.5,63.8,29.98,WSW,248,0.0,0.0,55,0.00,CLR,OVC,0.00,WeatherDisplay:10.37,2013-05-27 11:50:00,
2013-05-27 08:00:00,81.5,63.8,29.98,WSW,248,0.0,0.0,55,0.00,CLR,OVC,0.00,WeatherDisplay:10.37,2013-05-27 12:00:00,
2013-05-27 08:10:00,81.5,63.8,29.98,WSW,248,0.0,0.0,55,0.00,CLR,OVC,0.00,WeatherDisplay:10.37,2013-05-27 12:10:00,
2013-05-27 08:20:00,81.5,63.8,29.98,WSW,248,0.0,0.0,55,0.00,CLR,OVC,0.00,WeatherDisplay:10.37,2013-05-27 12:20:00,
2013-05-27 08:30:00,81.5,63.8,29.98,WSW,248,0.0,0.0,55,0.00,CLR,OVC,0.00,WeatherDisplay:10.37,2013-05-27 12:30:00,
2013-05-27 08:40:00,81.5,63.8,29.98,WSW,248,0.0,0.0,55,0.00,CLR,OVC,0.00,WeatherDisplay:10.37,2013-05-27 12:40:00,
2013-05-27 08:50:00,79.3,65.2,29.97,WSW,248,0.0,0.0,62,0.00,CLR,OVC,0.00,WeatherDisplay:10.37,2013-05-27 12:50:00,
2013-05-27 09:00:00,79.3,65.2,29.97,WSW,248,0.0,0.0,62,0.00,CLR,OVC,0.00,WeatherDisplay:10.37,2013-05-27 13:00:00,
2013-05-27 09:10:00,79.3,65.2,29.97,WSW,248,0.0,0.0,62,0.00,CLR,OVC,0.00,WeatherDisplay:10.37,2013-05-27 13:10:00,
2013-05-27 09:20:00,79.3,65.2,29.97,WSW,248,0.0,0.0,62,0.00,CLR,OVC,0.00,WeatherDisplay:10.37,2013-05-27 13:20:00,
2013-05-27 09:30:00,79.3,65.2,29.97,WSW,248,0.0,0.0,62,0.00,CLR,OVC,0.00,WeatherDisplay:10.37,2013-05-27 13:30:00,
2013-05-27 09:40:00,79.3,65.2,29.97,WSW,248,0.0,0.0,62,0.00,CLR,OVC,0.00,WeatherDisplay:10.37,2013-05-27 13:40:00,
2013-05-27 09:50:00,77.2,64.5,29.96,WSW,248,0.0,0.0,65,0.00,CLR,OVC,0.00,WeatherDisplay:10.37,2013-05-27 13:50:00,
2013-05-27 10:00:00,77.2,64.5,29.96,WSW,248,0.0,0.0,65,0.00,CLR,OVC,0.00,WeatherDisplay:10.37,2013-05-27 14:00:00,
2013-05-27 10:10:00,77.2,64.5,29.96,WSW,248,0.0,0.0,65,0.00,CLR,OVC,0.00,WeatherDisplay:10.37,2013-05-27 14:10:00,
2013-05-27 10:20:00,77.2,64.5,29.96,WSW,248,0.0,0.0,65,0.00,CLR,OVC,0.00,WeatherDisplay:10.37,2013-05-27 14:20:00,
2013-05-27 10:30:00,77.2,64.5,29.96,WSW,248,0.0,0.0,65,0.00,CLR,OVC,0.00,WeatherDisplay:10.37,2013-05-27 14:30:00,
2013-05-27 10:40:00,77.2,64.5,29.96,WSW,248,0.0,0.0,65,0.00,CLR,OVC,0.00,WeatherDisplay:10.37,2013-05-27 14:40:00,
2013-05-27 10:50:00,74.8,64.0,29.96,WSW,248,0.0,0.0,69,0.00,CLR,OVC,0.00,WeatherDisplay:10.37,2013-05-27 14:50:00,
2013-05-27 11:00:00,74.8,64.0,29.96,WSW,248,0.0,0.0,69,0.00,CLR,OVC,0.00,WeatherDisplay:10.37,2013-05-27 15:00:00,
2013-05-27 11:10:00,74.8,64.0,29.96,WSW,248,0.0,0.0,69,0.00,CLR,OVC,0.00,WeatherDisplay:10.37,2013-05-27 15:10:00,
2013-05-27 11:20:00,74.8,64.0,29.96,WSW,248,0.0,0.0,69,0.00,CLR,OVC,0.00,WeatherDisplay:10.37,2013-05-27 15:20:00,
2013-05-27 11:30:00,74.8,64.0,29.96,WSW,248,0.0,0.0,69,0.00,CLR,OVC,0.00,WeatherDisplay:10.37,2013-05-27 15:30:00,
2013-05-27 11:40:00,74.8,64.0,29.96,WSW,248,0.0,0.0,69,0.00,CLR,OVC,0.00,WeatherDisplay:10.37,2013-05-27 15:40:00,
2013-05-27 11:50:00,72.7,63.1,29.96,WSW,248,0.0,0.0,72,0.00,CLR,OVC,0.00,WeatherDisplay:10.37,2013-05-27 15:50:00,
2013-05-27 12:00:00,72.7,63.1,29.96,WSW,248,0.0,0.0,72,0.00,CLR,OVC,0.00,WeatherDisplay:10.37,2013-05-27 16:00:00,
2013-05-27 12:10:00,72.7,63.1,29.96,WSW,248,0.0,0.0,72,0.00,CLR,OVC,0.00,WeatherDisplay:10.37,2013-05-27 16:10:00,
2013-05-27 12:20:00,72.7,63.1,29.96,WSW,248,0.0,0.0,72,0.00,CLR,OVC,0.00,WeatherDisplay:10.37,2013-05-27 16:20:00,
2013-05-27 12:30:00,72.7,63.1,29.96,WSW,248,0.0,0.0,72,0.00,CLR,OVC,0.00,WeatherDisplay:10.37,2013-05-27 16:30:00,
2013-05-27 12:40:00,72.7,63.1,29.96,WSW,248,0.0,0.0,72,0.00,CLR,OVC,0.00,WeatherDisplay:10.37,2013-05-27 16:40:00,
2013-05-27 12:50:00,70.2,61.9,29.99,WSW,248,0.0,0.0,75,0.00,CLR,OVC,0.00,WeatherDisplay:10.37,2013-05-27 16:50:00,
2013-05-27 13:00:00,70.2,61.9,29.99,WSW,248,0.0,0.0,75,0.00,CLR,OVC,0.00,WeatherDisplay:10.37,2013-05-27 17:00:00,
2013-05-27 13:10:00,70.2,61.9,29.99,WSW,248,0.0,0.0,75,0.00,CLR,OVC,0.00,WeatherDisplay:10.37,2013-05-27 17:10:00,
2013-05-27 13:20:00,70.2,61.9,29.99,WSW,248,0.0,0.0,75,0.00,CLR,OVC,0.00,WeatherDisplay:10.37,2013-05-27 17:20:00,
2013-05-27 13:30:00,70.2,61.9,29.99,WSW,248,0.0,0.0,75,0.00,CLR,OVC,0.00,WeatherDisplay:10.37,2013-05-27 17:30:00,
2013-05-27 13:40:00,70.2,61.9,29.99,WSW,248,0.0,0.0,75,0.00,CLR,OVC,0.00,WeatherDisplay:10.37,2013-05-27 17:40:00,
2013-05-27 13:50:00,68.5,61.0,30.00,WSW,248,0.0,0.0,77,0.00,CLR,OVC,0.00,WeatherDisplay:10.37,2013-05-27 17:50:00,
2013-05-27 14:00:00,68.5,61.0,30.00,WSW,248,0.0,0.0,77,0.00,CLR,OVC,0.00,WeatherDisplay:10.37,2013-05-27 18:00:00,
2013-05-27 14:10:00,68.5,61.0,30.00,WSW,248,0.0,0.0,77,0.00,CLR,OVC,0.00,WeatherDisplay:10.37,2013-05-27 18:10:00,
2013-05-27 14:20:00,68.5,61.0,30.00,WSW,248,0.0,0.0,77,0.00,CLR,OVC,0.00,WeatherDisplay:10.37,2013-05-27 18:20:00,
2013-05-27 14:30:00,68.5,61.0,30.00,WSW,248,0.0,0.0,77,0.00,CLR,OVC,0.00,WeatherDisplay:10.37,2013-05-27 18:30:00,
2013-05-27 14:40:00,68.5,61.0,30.00,WSW,248,0.0,0.0,77,0.00,CLR,OVC,0.00,WeatherDisplay:10.37,2013-05-27 18:40:00,
2013-05-27 14:50:00,67.6,60.9,30.00,WSW,248,0.0,0.0,79,0.00,CLR,OVC,0.00,WeatherDisplay:10.37,2013-05-27 18:50:00,
2013-05-27 15:00:00,67.6,60.9,30.00,WSW,248,0.0,0.0,79,0.00,CLR,OVC,0.00,WeatherDisplay:10.37,2013-05-27 19:00:00,
2013-05-27 15:10:00,67.6,60.9,30.00,WSW,248,0.0,0.0,79,0.00,CLR,OVC,0.00,WeatherDisplay:10.37,2013-05-27 19:10:00,
2013-05-27 15:20:00,67.6,60.9,30.00,WSW,248,0.0,0.0,79,0.00,CLR,OVC,0.00,WeatherDisplay:10.37,2013-05-27 19:20:00,
2013-05-27 15:30:00,67.6,60.9,30.00,WSW,248,0.0,0.0,79,0.00,CLR,OVC,0.00,WeatherDisplay:10.37,2013-05-27 19:30:00,
2013-05-27 15:40:00,67.6,60.9,30.00,WSW,248,0.0,0.0,79,0.00,CLR,OVC,0.00,WeatherDisplay:10.37,2013-05-27 19:40:00,
2013-05-27 15:50:00,66.9,60.9,30.00,WSW,248,0.0,0.0,81,0.00,CLR,OVC,0.00,WeatherDisplay:10.37,2013-05-27 19:50:00,
2013-05-27 16:00:00,66.9,60.9,30.00,WSW,248,0.0,0.0,81,0.00,CLR,OVC,0.00,WeatherDisplay:10.37,2013-05-27 20:00:00,
2013-05-27 16:10:00,66.9,60.9,30.00,WSW,248,0.0,0.0,81,0.00,CLR,OVC,0.00,WeatherDisplay:10.37,2013-05-27 20:10:00,
2013-05-27 16:20:00,66.9,60.9,30.00,WSW,248,0.0,0.0,81,0.00,CLR,OVC,0.00,WeatherDisplay:10.37,2013-05-27 20:20:00,
2013-05-27 16:30:00,66.9,60.9,30.00,WSW,248,0.0,0.0,81,0.00,CLR,OVC,0.00,WeatherDisplay:10.37,2013-05-27 20:30:00,
2013-05-27 16:40:00,66.9,60.9,30.00,WSW,248,0.0,0.0,81,0.00,CLR,OVC,0.00,WeatherDisplay:10.37,2013-05-27 20:40:00,
2013-05-27 16:50:00,66.6,60.9,29.98,WSW,248,0.0,0.0,82,0.00,CLR,OVC,0.00,WeatherDisplay:10.37,2013-05-27 20:50:00,
2013-05-27 17:00:00,66.6,60.9,29.98,WSW,248,0.0,0.0,82,0.00,CLR,OVC,0.00,WeatherDisplay:10.37,2013-05-27 21:00:00,
2013-05-27 17:10:00,66.6,60.9,29.98,WSW,248,0.0,0.0,82,0.00,CLR,OVC,0.00,WeatherDisplay:10.37,2013-05-27 21:10:00,
2013-05-27 17:20:00,66.6,60.9,29.98,WSW,248,0.0,0.0,82,0.00,CLR,OVC,0.00,WeatherDisplay:10.37,2013-05-27 21:20:00,
2013-05-27 17:30:00,66.6,60.9,29.98,WSW,248,0.0,0.0,82,0.00,CLR,OVC,0.00,WeatherDisplay:10.37,2013-05-27 21:30:00,
2013-05-27 17:40:00,66.6,60.9,29.98,WSW,248,0.0,0.0,82,0.00,CLR,OVC,0.00,WeatherDisplay:10.37,2013-05-27 21:40:00,
2013-05-27 17:50:00,66.2,60.5,29.99,WSW,248,0.0,0.0,82,0.00,CLR,OVC,0.00,WeatherDisplay:10.37,2013-05-27 21:50:00,
2013-05-27 18:00:00,66.2,60.5,29.99,WSW,248,0.0,0.0,82,0.00,CLR,OVC,0.00,WeatherDisplay:10.37,2013-05-27 22:00:00,
2013-05-27 18:10:00,66.2,60.5,29.99,WSW,248,0.0,0.0,82,0.00,CLR,OVC,0.00,WeatherDisplay:10.37,2013-05-27 22:10:00,
2013-05-27 18:20:00,66.2,60.5,29.99,WSW,248,0.0,0.0,82,0.00,CLR,OVC,0.00,WeatherDisplay:10.37,2013-05-27 22:20:00,
2013-05-27 18:30:00,66.2,60.5,29.99,WSW,248,0.0,0.0,82,0.00,CLR,OVC,0.00,WeatherDisplay:10.37,2013-05-27 22:30:00,
2013-05-27 18:40:00,66.2,60.5,29.99,WSW,248,0.0,0.0,82,0.00,CLR,OVC,0.00,WeatherDisplay:10.37,2013-05-27 22:40:00,
2013-05-27 18:50:00,65.8,60.2,29.99,WSW,248,0.0,0.0,82,0.00,CLR,OVC,0.00,WeatherDisplay:10.37,2013-05-27 22:50:00,
2013-05-27 19:00:00,65.8,60.2,29.99,WSW,248,0.0,0.0,82,0.00,CLR,OVC,0.00,WeatherDisplay:10.37,2013-05-27 23:00:00,
2013-05-27 19:10:00,65.8,60.2,29.99,WSW,248,0.0,0.0,82,0.00,CLR,OVC,0.00,WeatherDisplay:10.37,2013-05-27 23:10:00,
2013-05-27 19:20:00,65.8,60.2,29.99,WSW,248,0.0,0.0,82,0.00,CLR,OVC,0.00,WeatherDisplay:10.37,2013-05-27 23:20:00,
2013-05-27 19:30:00,65.8,60.2,29.99,WSW,248,0.0,0.0,82,0.00,CLR,OVC,0.00,WeatherDisplay:10.37,2013-05-27 23:30:00,
2013-05-27 19:40:00,65.8,60.2,29.99,WSW,248,0.0,0.0,82,0.00,CLR,OVC,0.00,WeatherDisplay:10.37,2013-05-27 23:40:00,
2013-05-27 19:50:00,65.1,58.8,30.00,WSW,248,0.0,0.0,80,0.00,CLR,OVC,0.00,WeatherDisplay:10.37,2013-05-27 23:50:00,
2013-05-27 20:00:00,65.1,58.8,30.00,WSW,248,0.0,0.0,80,0.00,CLR,OVC,0.00,WeatherDisplay:10.37,2013-05-28 00:00:00,
2013-05-27 20:10:00,65.1,58.8,30.00,WSW,248,0.0,0.0,80,0.00,CLR,OVC,0.00,WeatherDisplay:10.37,2013-05-28 00:10:00,
2013-05-27 20:20:00,65.1,58.8,30.00,WSW,248,0.0,0.0,80,0.00,CLR,OVC,0.00,WeatherDisplay:10.37,2013-05-28 00:20:00,
2013-05-27 20:30:00,65.1,58.8,30.00,WSW,248,0.0,0.0,80,0.00,CLR,OVC,0.00,WeatherDisplay:10.37,2013-05-28 00:30:00,
2013-05-27 20:40:00,65.1,58.8,30.00,WSW,248,0.0,0.0,80,0.00,CLR,OVC,0.00,WeatherDisplay:10.37,2013-05-28 00:40:00,
2013-05-27 20:50:00,64.6,59.0,30.04,WSW,248,0.0,0.0,82,0.00,CLR,OVC,0.00,WeatherDisplay:10.37,2013-05-28 00:50:00,
2013-05-27 21:00:00,64.6,59.0,30.04,WSW,248,0.0,0.0,82,0.00,CLR,OVC,0.00,WeatherDisplay:10.37,2013-05-28 01:00:00,
2013-05-27 21:10:00,64.6,59.0,30.04,WSW,248,0.0,0.0,82,0.00,CLR,OVC,0.00,WeatherDisplay:10.37,2013-05-28 01:10:00,
2013-05-27 21:20:00,64.6,59.0,30.04,WSW,248,0.0,0.0,82,0.00,CLR,OVC,0.00,WeatherDisplay:10.37,2013-05-28 01:20:00,
2013-05-27 21:30:00,64.6,59.0,30.04,WSW,248,0.0,0.0,82,0.00,CLR,OVC,0.00,WeatherDisplay:10.37,2013-05-28 01:30:00,
2013-05-27 21:40:00,64.6,59.0,30.04,WSW,248,0.0,0.0,82,0.00,CLR,OVC,0.00,WeatherDisplay:10.37,2013-05-28 01:40:00,
2013-05-27 21:50:00,64.6,59.6,30.05,WSW,248,0.0,0.0,84,0.00,CLR,OVC,0.00,WeatherDisplay:10.37,2013-05-28 01:50:00,
2013-05-27 22:00:00,64.6,59.6,30.05,WSW,248,0.0,0.0,84,0.00,CLR,OVC,0.00,WeatherDisplay:10.37,2013-05-28 02:00:00,
2013-05-27 22:10:00,64.6,59.6,30.05,WSW,248,0.0,0.0,84,0.00,CLR,OVC,0.00,WeatherDisplay:10.37,2013-05-28 02:10:00,
2013-05-27 22:20:00,64.6,59.6,30.05,WSW,248,0.0,0.0,84,0.00,CLR,OVC,0.00,WeatherDisplay:10.37,2013-05-28 02:20:00,
2013-05-27 22:30:00,64.6,59.6,30.05,WSW,248,0.0,0.0,84,0.00,CLR,OVC,0.00,WeatherDisplay:10.37,2013-05-28 02:30:00,
2013-05-27 22:40:00,64.6,59.6,30.05,WSW,248,0.0,0.0,84,0.00,CLR,OVC,0.00,WeatherDisplay:10.37,2013-05-28 02:40:00,
2013-05-27 22:50:00,66.4,61.4,30.05,WSW,248,0.0,0.0,84,0.00,CLR,OVC,0.00,WeatherDisplay:10.37,2013-05-28 02:50:00,
2013-05-27 23:00:00,66.4,61.4,30.05,WSW,248,0.0,0.0,84,0.00,CLR,OVC,0.00,WeatherDisplay:10.37,2013-05-28 03:00:00,
2013-05-27 23:10:00,66.4,61.4,30.05,WSW,248,0.0,0.0,84,0.00,CLR,OVC,0.00,WeatherDisplay:10.37,2013-05-28 03:10:00,
2013-05-27 23:20:00,66.4,61.4,30.05,WSW,248,0.0,0.0,84,0.00,CLR,OVC,0.00,WeatherDisplay:10.37,2013-05-28 03:20:00,
2013-05-27 23:30:00,66.4,61.4,30.05,WSW,248,0.0,0.0,84,0.00,CLR,OVC,0.00,WeatherDisplay:10.37,2013-05-28 03:30:00,
2013-05-27 23:40:00,66.4,61.4,30.05,WSW,248,0.0,0.0,84,0.00,CLR,OVC,0.00,WeatherDisplay:10.37,2013-05-28 03:40:00,
2013-05-27 23:50:00,69.1,63.0,30.05,WSW,248,0.0,0.0,81,0.00,CLR,OVC,0.00,WeatherDisplay:10.37,2013-05-28 03:50:00,